Regional Weather Roundup
Issued by NWS Sioux Falls, SD

Home | Current Version | Previous Version | Text Only | Print | Product List | Glossary Off
Versions: 1 2 3 4 5 6 7 8 9 10 11 12 13 14 15 16 17 18 19 20 21 22 23 24 25 26 27 28 29 30 31 32 33 34 35 36 37 38 39 40 41 42 43 44 45 46 47 48 49 50

000
ASUS43 KFSD 081210
RWRFSD

WEATHER ROUNDUP FOR SE SOUTH DAKOTA/SW MINNESOTA/NW IOWA
NATIONAL WEATHER SERVICE SIOUX FALLS SD
600 AM CST THU DEC 08 2016

NOTE: "FAIR" INDICATES FEW OR NO CLOUDS BELOW 12,000 FEET WITH NO
SIGNIFICANT WEATHER AND OR OBSTRUCTIONS TO VISIBILITY.


SDZ038>040-050-052>070-081300-
SOUTHEAST SOUTH DAKOTA

CITY           SKY/WX    TMP DP  RH WIND       PRES   REMARKS
BROOKINGS      FLURRIES   7   2  80 NW15      30.40R WCI -10
CHAMBERLAIN    CLEAR      8   4  82 NW18      30.57R WCI -10
6HR MIN TEMP:   8; 6HR MAX TEMP:  10;

HURON          CLEAR      6   1  80 NW21G31   30.52R WCI -14
6HR MIN TEMP:   6; 6HR MAX TEMP:   8; 6HR PCP: TRACE;

MADISON        PTSUNNY    5   1  85 NW22G29   30.42R WCI -16
MITCHELL       CLEAR      8   2  76 NW20      30.54R WCI -11
6HR MIN TEMP:   7; 6HR MAX TEMP:   9;

SIOUX FALLS    PTCLDY     8   3  80 NW20G31   30.44R WCI -11
6HR MIN TEMP:   8; 6HR MAX TEMP:   9; 6HR PCP: TRACE;

WINNER         PTSUNNY    7  -1  70 NW20G28   30.58R WCI -13
YANKTON        CLEAR      9   0  66 NW20G29   30.52R WCI -11
$$

MNZ071-072-080-081-089-090-097-098-081300-
SOUTHWEST MINNESOTA

CITY           SKY/WX    TMP DP  RH WIND       PRES   REMARKS
FAIRMONT       FLURRIES  14   9  80 NW18      30.33R WCI  -3
JACKSON        MOCLDY    12   5  73 NW18G25   30.33R WCI  -5
LUVERNE        CLEAR      9   3  78 NW16G24   30.41R WCI  -9
MARSHALL       FLURRIES  12   6  77 NW24      30.36R WCI  -8
6HR MIN TEMP:  11; 6HR MAX TEMP:  14; 6HR PCP: TRACE;

MONTEVIDEO     LGT SNOW  16  10  79 N16G26    30.37R WCI   0
PIPESTONE      CLEAR      9   3  78 NW17G24   30.37R WCI -10
REDWOOD FALLS  LGT SNOW  16  10  77 NW18G28   30.33R WCI   0
TRACY          CLOUDY    13   9  83 NW20G25   30.36R WCI  -4
WINDOM         FLURRIES  12   9  85 W20G26    30.32R WCI  -6
WORTHINGTON    FLURRIES   8   4  83 W24       30.36R WCI -13
$$

IAZ001>003-012>014-020>022-031-032-NEZ013-014-SDZ071-081300-
NORTHWEST IOWA

CITY           SKY/WX    TMP DP  RH WIND       PRES   REMARKS
CHEROKEE       PTCLDY     8   4  80 NW13G18   30.45R WCI  -7
DENISON        PTCLDY     9   3  78 NW14G21   30.45R WCI  -8
ESTHERVILLE    CLOUDY    10   6  84 NW21G30   30.33S WCI  -9
LE MARS        CLOUDY     9   3  78 NW20      30.49R WCI -11
ORANGE CITY    PTCLDY     9   3  78 NW21G29   30.43R WCI -11
SHELDON        CLOUDY     9   5  85 NW16      30.40R WCI  -9
SIOUX CITY     PTCLDY    11   2  67 NW17G24   30.50R WCI  -6
6HR MIN TEMP:  11; 6HR MAX TEMP:  16; 6HR PCP: TRACE;

SPENCER        MOCLDY    10   5  80 W28G35    30.38R WCI -12
6HR MIN TEMP:   9; 6HR MAX TEMP:  11; 6HR PCP: TRACE;

STORM LAKE     CLEAR      7   3  85 NW21      30.39R WCI -13
$$

ABBREVIATIONS USED IN REMARKS
   TC - TEMPERATURE IN CELSIUS
  WCI - WIND CHILL INDEX
   HX - HEAT INDEX
  VSB - VISIBILITY





USA.gov is the U.S. government's official web portal to all federal, state and local government web resources and services.